CW8484 Weather Reports


Display with metric or nautical units.
time (UTC)temp
F
wind
direction
speed
MPH
gust
MPH
rain 1hr
in
rain 24hr
in
rain mn
in
humidity
%
barometer
mb
20260508033445 42 235 1.0 5.0 0.00 0.01 0.00 65 1007.2
20260508032423 43 240 0.0 4.0 0.00 0.01 0.00 67 1007.2
20260508031424 43 244 0.0 3.0 0.00 0.01 0.00 65 1007.3
20260508030424 43 255 1.0 3.0 0.00 0.01 0.00 62 1007.4
20260508025402 43 256 1.0 4.0 0.00 0.01 0.00 61 1007.3
20260508024404 43 258 0.0 2.0 0.00 0.01 0.00 63 1007.3
20260508023403 42 258 1.0 6.0 0.00 0.01 0.00 63 1007.3
20260508022404 42 260 0.0 3.0 0.00 0.01 0.00 61 1007.4
20260508021404 42 261 1.0 4.0 0.00 0.01 0.00 63 1007.3
20260508015425 42 262 1.0 3.0 0.00 0.01 0.00 62 1007.3
20260508014403 42 263 0.0 0.0 0.00 0.01 0.00 62 1007.3
20260508013404 42 263 0.0 0.0 0.00 0.01 0.00 63 1007.2
20260508012404 42 263 0.0 0.0 0.00 0.01 0.00 65 1007.1
20260508011403 42 263 0.0 0.0 0.00 0.01 0.00 65 1007.1
20260508010404 42 263 0.0 0.0 0.00 0.01 0.00 66 1007.1
20260508005403 42 263 0.0 0.0 0.00 0.01 0.00 62 1007.1
20260508004404 43 263 0.0 7.0 0.00 0.01 0.00 61 1007.0
20260508003403 44 261 1.0 4.0 0.00 0.01 0.00 57 1006.8
20260508002404 45 261 2.0 7.0 0.00 0.01 0.00 55 1006.8
20260508001404 45 256 3.0 7.0 0.00 0.01 0.00 52 1006.7
20260508000405 46 252 1.0 9.0 0.00 0.01 0.00 52 1006.7
20260507235404 48 235 2.0 10.0 0.00 0.01 0.00 50 1006.7
20260507234403 49 242 2.0 5.0 0.00 0.01 0.00 48 1006.6
20260507233404 50 242 3.0 7.0 0.00 0.01 0.00 47 1006.6
20260507232403 49 247 2.0 9.0 0.00 0.01 0.00 46 1006.6
20260507231404 48 259 4.0 12.0 0.00 0.01 0.00 49 1006.6
20260507230403 48 232 3.0 13.0 0.00 0.01 0.00 47 1006.6
20260507225404 49 243 6.0 16.0 0.00 0.01 0.00 45 1006.6
20260507224403 51 253 8.0 14.0 0.00 0.01 0.00 43 1006.5
20260507223404 50 219 5.0 12.0 0.00 0.01 0.00 48 1006.6
20260507222403 49 247 8.0 14.0 0.00 0.01 0.00 46 1006.6
20260507221404 50 234 6.0 12.0 0.00 0.01 0.00 45 1006.7
20260507220404 50 243 7.0 14.0 0.00 0.01 0.00 45 1006.6
20260507215403 50 254 6.0 14.0 0.00 0.01 0.00 45 1006.7
20260507214404 50 217 5.0 11.0 0.00 0.01 0.00 46 1006.7
20260507213425 50 257 7.0 12.0 0.00 0.01 0.00 46 1006.7
20260507212403 50 244 7.0 16.0 0.00 0.01 0.00 44 1006.7
20260507211404 50 237 4.0 13.0 0.00 0.02 0.00 45 1006.6
20260507210403 50 223 7.0 11.0 0.00 0.02 0.00 45 1006.6
20260507205404 49 252 4.0 16.0 0.00 0.02 0.00 48 1006.5
20260507204403 50 249 8.0 13.0 0.00 0.02 0.00 45 1006.3
20260507203403 50 272 1.0 16.0 0.00 0.02 0.00 48 1006.3
20260507202403 50 255 7.0 17.0 0.00 0.03 0.00 46 1006.4
20260507201425 50 270 8.0 19.0 0.00 0.04 0.00 45 1006.2
20260507200404 50 257 9.0 18.0 0.00 0.04 0.00 44 1006.4
20260507195403 51 261 6.0 14.0 0.00 0.05 0.00 45 1006.4
20260507194425 50 265 7.0 15.0 0.00 0.05 0.00 50 1006.5
20260507193404 51 254 7.0 15.0 0.00 0.06 0.00 43 1006.5
20260507192403 51 254 9.0 17.0 0.00 0.06 0.00 44 1006.5
20260507191404 52 256 7.0 16.0 0.00 0.06 0.00 45 1006.4
20260507190403 53 245 6.0 17.0 0.00 0.06 0.00 42 1006.5
20260507185404 52 274 8.0 17.0 0.00 0.06 0.00 44 1006.6
20260507184403 52 261 2.0 19.0 0.00 0.06 0.00 45 1006.6
20260507183446 51 264 6.0 13.0 0.00 0.07 0.00 49 1006.6
20260507182403 51 222 4.0 19.0 0.00 0.07 0.00 44 1006.6
20260507181403 50 245 6.0 13.0 0.00 0.08 0.00 46 1006.7
20260507180425 50 238 9.0 16.0 0.00 0.08 0.00 46 1006.8
20260507175403 50 248 9.0 18.0 0.00 0.08 0.00 47 1006.7
20260507174404 50 253 7.0 14.0 0.00 0.08 0.00 48 1006.7
20260507173425 50 259 8.0 16.0 0.00 0.08 0.00 46 1006.7
20260507172424 52 274 4.0 18.0 0.00 0.09 0.00 46 1006.6
20260507171403 52 241 8.0 18.0 0.00 0.09 0.00 48 1006.6
20260507170403 52 216 9.0 15.0 0.00 0.10 0.00 47 1006.8
20260507165403 53 213 10.0 21.0 0.00 0.11 0.00 48 1006.9
20260507164403 53 226 6.0 21.0 0.00 0.12 0.00 48 1007.0
20260507163403 53 245 10.0 17.0 0.00 0.12 0.00 50 1007.1
20260507162404 52 215 7.0 16.0 0.00 0.14 0.00 48 1007.3
20260507161403 51 172 5.0 17.0 0.00 0.15 0.00 52 1007.3
20260507160404 50 215 7.0 13.0 0.00 0.16 0.00 54 1007.4
20260507155403 51 199 6.0 13.0 0.00 0.18 0.00 54 1007.4
20260507154403 50 251 8.0 19.0 0.00 0.19 0.00 56 1007.6
20260507153403 50 222 8.0 18.0 0.00 0.21 0.00 59 1007.6
20260507152404 49 250 10.0 24.0 0.00 0.23 0.00 58 1007.7
20260507151403 49 252 11.0 20.0 0.00 0.25 0.00 58 1007.8
20260507150403 48 241 8.0 18.0 0.00 0.28 0.00 60 1007.9
20260507145403 48 239 7.0 15.0 0.00 0.29 0.00 57 1007.6
20260507144403 48 194 5.0 19.0 0.00 0.31 0.00 65 1007.7
20260507143424 46 200 6.0 18.0 0.00 0.31 0.00 66 1007.8
20260507142446 47 220 7.0 16.0 0.00 0.33 0.00 66 1007.8
20260507141403 46 246 7.0 17.0 0.00 0.33 0.00 69 1007.8
20260507140425 46 223 7.0 20.0 0.00 0.34 0.00 71 1007.8
20260507135424 46 218 9.0 16.0 0.00 0.36 0.00 71 1007.8
20260507134403 45 225 9.0 21.0 0.00 0.36 0.00 73 1007.8
20260507133403 45 222 8.0 18.0 0.00 0.37 0.00 73 1007.7
20260507132403 44 226 6.0 14.0 0.00 0.37 0.00 75 1007.7
20260507131403 44 223 7.0 17.0 0.00 0.37 0.00 74 1007.8
20260507130403 44 237 7.0 20.0 0.00 0.37 0.00 77 1007.9
20260507125403 43 264 11.0 17.0 0.00 0.38 0.00 78 1007.9
20260507124404 43 252 8.0 16.0 0.00 0.38 0.00 76 1007.8
20260507123403 43 241 8.0 16.0 0.00 0.39 0.00 78 1007.6
20260507122403 42 235 6.0 17.0 0.00 0.40 0.00 82 1007.7
20260507121403 41 241 8.0 16.0 0.00 0.40 0.00 85 1007.7
20260507120403 41 239 10.0 16.0 0.00 0.42 0.00 85 1007.7
20260507115403 42 243 8.0 15.0 0.00 0.43 0.00 89 1007.5
20260507114424 41 255 5.0 11.0 0.00 0.44 0.00 93 1007.5
20260507113403 40 217 4.0 10.0 0.00 0.45 0.00 94 1007.2
20260507112402 40 187 3.0 10.0 0.00 0.46 0.00 94 1007.0
20260507111424 40 220 4.0 11.0 0.00 0.47 0.00 95 1007.1
20260507105402 41 207 5.0 13.0 0.00 0.47 0.00 95 1007.0
20260507104424 41 207 5.0 12.0 0.00 0.48 0.00 95 1007.0
20260507103424 41 178 3.0 9.0 0.00 0.48 0.00 95 1006.9
20260507102403 41 174 3.0 7.0 0.00 0.48 0.00 95 1006.9
20260507101403 41 178 2.0 7.0 0.00 0.48 0.00 95 1006.8
20260507100424 41 168 1.0 6.0 0.00 0.48 0.00 95 1006.8
20260507095403 41 194 2.0 4.0 0.00 0.48 0.00 95 1006.9
20260507094445 41 194 3.0 6.0 0.00 0.48 0.00 95 1006.9
20260507093403 41 175 4.0 7.0 0.00 0.49 0.00 95 1006.7
20260507092402 41 178 2.0 8.0 0.00 0.49 0.00 95 1006.6
20260507091403 41 185 2.0 7.0 0.00 0.50 0.00 95 1006.7
20260507090402 41 183 1.0 6.0 0.00 0.51 0.00 95 1006.6
20260507085424 40 185 3.0 8.0 0.00 0.51 0.00 95 1006.6
20260507084403 40 187 2.0 8.0 0.00 0.51 0.00 95 1006.6
20260507083404 40 158 2.0 8.0 0.00 0.51 0.00 95 1006.6
20260507082403 40 176 3.0 8.0 0.00 0.51 0.00 95 1006.8
20260507081403 40 186 1.0 6.0 0.00 0.51 0.00 95 1006.8
20260507080403 40 185 3.0 6.0 0.00 0.51 0.00 95 1006.9
20260507075403 40 178 3.0 10.0 0.00 0.52 0.00 95 1007.0
20260507074403 40 189 2.0 7.0 0.00 0.52 0.00 95 1007.2
20260507073403 40 224 4.0 7.0 0.00 0.52 0.00 95 1007.2
20260507072403 40 199 2.0 6.0 0.00 0.52 0.00 95 1007.2
20260507070402 40 194 0.0 6.0 0.00 0.52 0.00 94 1006.8
20260507065403 40 180 0.0 7.0 0.00 0.52 0.00 95 1006.7
20260507063404 40 179 0.0 4.0 0.00 0.52 0.00 95 1006.6
20260507062404 40 181 2.0 6.0 0.00 0.52 0.00 95 1006.7
20260507061403 40 187 1.0 4.0 0.00 0.52 0.00 95 1006.8
20260507060404 40 187 2.0 5.0 0.00 0.52 0.00 95 1006.9
20260507055404 39 263 0.0 3.0 0.00 0.52 0.00 95 1007.0
20260507054404 38 267 0.0 0.0 0.00 0.52 0.00 94 1006.8
20260507053403 38 267 0.0 0.0 0.00 0.52 0.00 94 1007.1
20260507052425 38 267 0.0 0.0 0.00 0.53 0.00 94 1007.2
20260507051404 38 267 0.0 0.0 0.00 0.53 0.00 94 1007.2
20260507050404 38 267 0.0 0.0 0.00 0.53 0.00 94 1007.4
20260507045404 38 267 0.0 0.0 0.00 0.53 0.00 94 1007.5
20260507043404 39 267 0.0 0.0 0.00 0.55 0.00 94 1007.8
20260507042403 39 267 0.0 0.0 0.00 0.56 0.00 93 1007.8
20260507041404 39 267 0.0 0.0 0.00 0.57 0.00 94 1007.7
20260507040403 39 267 0.0 0.0 0.00 0.58 0.00 94 1007.8
20260507035404 39 267 0.0 0.0 0.00 0.57 0.57 93 1007.8
20260507034404 40 267 0.0 0.0 0.00 0.59 0.57 93 1007.8